When you browse on this site, cookies collect data to enhance your experience and personalize the content and advertising you see.
Visit our Privacy Policy to learn more. By continuing to use the site, you agree to this use of cookies and data.
  • In Austria
  • List of Countries
  • For 7 days
  • Water Temperature
  • Satellite Maps
  • Weather Map
  • News
  • Weather Widgets
  • user-avatar
    Login

    Hourly Weather Lisbon

    Today, 21 May, Tuesday

    Time Temperature Precipitation Wind Pressure Humidity
    00:00 +16°C° 0 mm 2 mps 758 mmHg 91%
    01:00 +16°C° 0 mm 1 mps 758 mmHg 92%
    02:00 +16°C° 0 mm 1 mps 758 mmHg 93%
    03:00 +16°C° 0 mm 1 mps 758 mmHg 93%
    04:00 +16°C° 0 mm 1 mps 758 mmHg 93%
    05:00 +18°C° 0 mm 1 mps 758 mmHg 93%
    06:00 +18°C° 0 mm 2 mps 758 mmHg 84%
    07:00 +19°C° 0 mm 2 mps 758 mmHg 75%
    08:00 +21°C° 0 mm 2 mps 758 mmHg 66%
    09:00 +22°C° 0 mm 3 mps 758 mmHg 60%
    10:00 +24°C° 0 mm 3 mps 758 mmHg 54%
    11:00 +25°C° 0 mm 4 mps 758 mmHg 48%
    12:00 +25°C° 0 mm 4 mps 758 mmHg 48%
    13:00 +25°C° 0 mm 5 mps 758 mmHg 47%
    14:00 +25°C° 0 mm 5 mps 758 mmHg 47%
    15:00 +23°C° 0 mm 5 mps 758 mmHg 50%
    16:00 +22°C° 0 mm 5 mps 758 mmHg 52%
    17:00 +21°C° 0 mm 5 mps 758 mmHg 55%
    18:00 +20°C° 0 mm 5 mps 758 mmHg 62%
    19:00 +19°C° 0 mm 4 mps 758 mmHg 68%
    20:00 +17°C° 0 mm 4 mps 759 mmHg 75%
    21:00 +17°C° 0 mm 3 mps 759 mmHg 78%
    22:00 +17°C° 0 mm 3 mps 759 mmHg 82%
    23:00 +16°C° 0 mm 3 mps 759 mmHg 85%

    Tomorrow, 22 May, Wednesday

    Time Temperature Precipitation Wind Pressure Humidity
    00:00 +16°C° 0 mm 2 mps 759 mmHg 87%
    01:00 +16°C° 0 mm 2 mps 759 mmHg 88%
    02:00 +15°C° 0 mm 2 mps 758 mmHg 89%
    03:00 +15°C° 0 mm 2 mps 758 mmHg 89%
    04:00 +15°C° 0 mm 2 mps 758 mmHg 89%
    05:00 +15°C° 0 mm 2 mps 758 mmHg 89%
    06:00 +17°C° 0 mm 2 mps 759 mmHg 79%
    07:00 +19°C° 0 mm 2 mps 759 mmHg 68%
    08:00 +21°C° 0 mm 3 mps 759 mmHg 58%
    09:00 +24°C° 0 mm 3 mps 759 mmHg 53%
    10:00 +25°C° 0 mm 3 mps 759 mmHg 48%
    11:00 +27°C° 0 mm 4 mps 759 mmHg 43%
    12:00 +27°C° 0 mm 4 mps 759 mmHg 43%
    13:00 +27°C° 0 mm 5 mps 759 mmHg 43%
    14:00 +27°C° 0 mm 6 mps 759 mmHg 44%
    15:00 +26°C° 0 mm 6 mps 759 mmHg 47%
    16:00 +23°C° 0 mm 6 mps 759 mmHg 50%
    17:00 +22°C° 0 mm 6 mps 759 mmHg 53%
    18:00 +21°C° 0 mm 6 mps 759 mmHg 59%
    19:00 +19°C° 0 mm 5 mps 760 mmHg 66%
    20:00 +17°C° 0 mm 5 mps 760 mmHg 73%
    21:00 +17°C° 0 mm 4 mps 760 mmHg 75%
    22:00 +17°C° 0 mm 4 mps 760 mmHg 78%
    23:00 +15°C° 0 mm 4 mps 760 mmHg 80%

    Day after tomorrow, 23 May, Thursday

    Time Temperature Precipitation Wind Pressure Humidity
    00:00 +15°C° 0 mm 4 mps 760 mmHg 82%
    01:00 +15°C° 0 mm 4 mps 760 mmHg 84%
    02:00 +14°C° 0 mm 3 mps 760 mmHg 86%
    03:00 +14°C° 0 mm 3 mps 760 mmHg 87%
    04:00 +14°C° 0 mm 3 mps 760 mmHg 89%
    05:00 +14°C° 0 mm 3 mps 760 mmHg 90%
    06:00 +17°C° 0 mm 4 mps 760 mmHg 77%
    07:00 +19°C° 0 mm 4 mps 760 mmHg 65%
    08:00 +22°C° 0 mm 5 mps 760 mmHg 53%
    09:00 +23°C° 0 mm 5 mps 760 mmHg 50%
    10:00 +25°C° 0 mm 5 mps 760 mmHg 47%
    11:00 +27°C° 0 mm 6 mps 760 mmHg 44%
    12:00 +27°C° 0 mm 6 mps 760 mmHg 46%
    13:00 +26°C° 0 mm 7 mps 760 mmHg 49%
    14:00 +26°C° 0 mm 7 mps 760 mmHg 51%
    15:00 +24°C° 0 mm 7 mps 759 mmHg 52%
    16:00 +23°C° 0 mm 7 mps 759 mmHg 54%
    17:00 +22°C° 0 mm 7 mps 759 mmHg 55%
    18:00 +20°C° 0 mm 7 mps 760 mmHg 57%
    19:00 +18°C° 0 mm 7 mps 760 mmHg 59%
    20:00 +16°C° 0 mm 7 mps 760 mmHg 61%
    21:00 +16°C° 0 mm 7 mps 760 mmHg 63%
    22:00 +16°C° 0 mm 7 mps 760 mmHg 65%
    23:00 +15°C° 0 mm 7 mps 760 mmHg 67%

    24 May, Friday

    Time Temperature Precipitation Wind Pressure Humidity
    00:00 +15°C° 0 mm 7 mps 760 mmHg 67%
    01:00 +15°C° 0 mm 7 mps 759 mmHg 67%
    02:00 +15°C° 0 mm 7 mps 759 mmHg 67%
    03:00 +15°C° 0 mm 7 mps 759 mmHg 66%
    04:00 +15°C° 0 mm 7 mps 758 mmHg 65%
    05:00 +15°C° 0 mm 6 mps 758 mmHg 64%
    06:00 +17°C° 0 mm 7 mps 758 mmHg 56%
    07:00 +20°C° 0 mm 8 mps 758 mmHg 49%
    08:00 +21°C° 0 mm 8 mps 759 mmHg 42%
    09:00 +23°C° 0 mm 8 mps 758 mmHg 37%
    10:00 +24°C° 0 mm 8 mps 758 mmHg 33%
    11:00 +27°C° 0 mm 8 mps 758 mmHg 29%
    12:00 +27°C° 0 mm 8 mps 757 mmHg 29%
    13:00 +27°C° 0 mm 8 mps 757 mmHg 29%
    14:00 +27°C° 0 mm 9 mps 756 mmHg 30%
    15:00 +26°C° 0 mm 9 mps 756 mmHg 34%
    16:00 +24°C° 0 mm 9 mps 756 mmHg 39%
    17:00 +23°C° 0 mm 9 mps 756 mmHg 44%
    18:00 +21°C° 0 mm 9 mps 756 mmHg 48%
    19:00 +20°C° 0 mm 8 mps 757 mmHg 53%
    20:00 +18°C° 0 mm 8 mps 757 mmHg 57%
    21:00 +17°C° 0 mm 7 mps 757 mmHg 59%
    22:00 +17°C° 0 mm 6 mps 757 mmHg 62%
    23:00 +16°C° 0 mm 5 mps 757 mmHg 64%

    25 May, Saturday

    Time Temperature Precipitation Wind Pressure Humidity
    00:00 +16°C° 0 mm 5 mps 757 mmHg 62%
    01:00 +16°C° 0 mm 5 mps 757 mmHg 60%
    02:00 +17°C° 0 mm 4 mps 756 mmHg 58%
    03:00 +17°C° 0 mm 4 mps 757 mmHg 56%
    04:00 +16°C° 0 mm 5 mps 757 mmHg 54%
    05:00 +16°C° 0 mm 5 mps 757 mmHg 52%
    06:00 +19°C° 0 mm 5 mps 757 mmHg 48%
    07:00 +21°C° 0 mm 5 mps 758 mmHg 44%
    08:00 +23°C° 0 mm 4 mps 758 mmHg 40%
    09:00 +26°C° 0 mm 5 mps 758 mmHg 36%
    10:00 +27°C° 0 mm 5 mps 758 mmHg 32%
    11:00 +29°C° 0 mm 5 mps 758 mmHg 28%
    12:00 +29°C° 0 mm 6 mps 757 mmHg 28%
    13:00 +29°C° 0 mm 6 mps 757 mmHg 28%
    14:00 +30°C° 0 mm 7 mps 756 mmHg 28%
    15:00 +29°C° 0 mm 7 mps 756 mmHg 31%
    16:00 +27°C° 0 mm 8 mps 756 mmHg 34%
    17:00 +26°C° 0 mm 8 mps 756 mmHg 38%
    18:00 +24°C° 0 mm 7 mps 757 mmHg 41%
    19:00 +23°C° 0 mm 6 mps 757 mmHg 45%
    20:00 +21°C° 0 mm 6 mps 758 mmHg 49%
    21:00 +21°C° 0 mm 5 mps 758 mmHg 50%
    22:00 +20°C° 0 mm 4 mps 758 mmHg 50%
    23:00 +20°C° 0 mm 4 mps 758 mmHg 51%

    26 May, Sunday

    Time Temperature Precipitation Wind Pressure Humidity
    00:00 +19°C° 0 mm 4 mps 758 mmHg 53%
    01:00 +19°C° 0 mm 4 mps 758 mmHg 54%
    02:00 +18°C° 0 mm 4 mps 758 mmHg 56%
    03:00 +18°C° 0 mm 4 mps 758 mmHg 56%
    04:00 +17°C° 0 mm 4 mps 759 mmHg 56%
    05:00 +17°C° 0 mm 4 mps 759 mmHg 57%
    06:00 +19°C° 0 mm 4 mps 759 mmHg 51%
    07:00 +22°C° 0 mm 4 mps 759 mmHg 45%
    08:00 +25°C° 0 mm 4 mps 760 mmHg 39%
    09:00 +26°C° 0 mm 4 mps 759 mmHg 35%
    10:00 +28°C° 0 mm 4 mps 759 mmHg 32%
    11:00 +30°C° 0 mm 4 mps 759 mmHg 28%
    12:00 +30°C° 0 mm 4 mps 759 mmHg 27%
    13:00 +32°C° 0 mm 5 mps 759 mmHg 27%
    14:00 +32°C° 0 mm 5 mps 758 mmHg 27%
    15:00 +30°C° 0 mm 6 mps 758 mmHg 30%
    16:00 +29°C° 0 mm 7 mps 758 mmHg 34%
    17:00 +27°C° 0 mm 7 mps 757 mmHg 37%
    18:00 +26°C° 0 mm 7 mps 758 mmHg 41%
    19:00 +23°C° 0 mm 6 mps 758 mmHg 44%
    20:00 +21°C° 0 mm 5 mps 758 mmHg 48%
    21:00 +20°C° 0 mm 4 mps 758 mmHg 51%
    22:00 +20°C° 0 mm 4 mps 758 mmHg 54%
    23:00 +19°C° 0 mm 3 mps 758 mmHg 58%
    Show more